Tracking 30289 objects as of 29-Apr-2025
HD Live streaming from Space Station
objects crossing your sky now

TJS-17

Track TJS-17 now!


NORAD ID: 63524
Int'l Code: 2025-073A
Perigee: 35,792.2 km
Apogee: 35,795.7 km
Inclination: 0.0 °
Period: 1,436.1 minutes
Semi major axis: 42164 km
RCS: Unknown
Launch date: April 10, 2025
Source: People's Republic of China (PRC)
Launch site: Xichang Space Center, China (XSC)
Your satellite tracking list
Your tracking list is empty




NASA's NSSDC Master Catalog

Two Line Element Set (TLE):
1 63524U 25073A   25118.96606806 -.00000177  00000-0  00000-0 0  9991
2 63524   0.0338 335.6568 0000423 101.3735 280.6961  1.00271110   130
Source of the keplerian elements: AFSPC